Tracking 18852 objects as of 23-Nov-2017
HD Live streaming from Space Station
objects crossing your sky now

FORMOSAT 3A

Track FORMOSAT 3A now!
10-day predictions
FORMOSAT 3A is classified as:


NORAD ID: 29047
Int'l Code: 2006-011A
Perigee: 766.0 km
Apogee: 841.0 km
Inclination: 72.0 °
Period: 100.8 minutes
Semi major axis: 7174 km
RCS: 0.591 m2 (medium)
Launch date: April 15, 2006
Source: Taiwan (Republic of China) (ROC)
Launch site: AIR FORCE WESTERN TEST RANGE (AFWTR)
aabbcc
Your satellite tracking list
Your tracking list is empty




NASA's NSSDC Master Catalog

Two Line Element Set (TLE):
1 29047U 06011A   17326.92746694 +.00000127 +00000-0 +66049-4 0  9995
2 29047 071.9796 223.2779 0052307 239.7187 119.8768 14.28610615607422
Source of the keplerian elements: AFSPC